Location: Drocourt
(49.0571°N, 1.7669°E)
Time: 11:37:16
(UTC+00:00)

Transit 4A - Pass Details

Date: 13 April 2024
Orbit: 871 x 971 km, 66.8° (Epoch: 24 May)

Event Time Altitude Azimuth Distance (km) Brightness Sun altitude
Rises 23:00:00 0° 322° (NW) 3,472 11.9 -30.3°
Reaches altitude 10° 23:02:30 10° 319° (NW) 2,528 10.9 -30.4°
Enters shadow 23:07:13 52° 283° (WNW) 1,075 8.2 -30.6°
Maximum altitude 23:08:14 61° 241° (WSW) 992 - -30.6°
Drops below altitude 10° 23:13:58 10° 162° (SSE) 2,534 - -30.8°
Sets 23:16:29 0° 159° (SSE) 3,480 - -30.9°
